Zacatecas Airport, Mexico

5:44 PM CST on March 26, 2017 (GMT -0600)
Gen Leobardo C Ruiz International

Weather History for MMZC - May, 2013

Change the Weather History Date:

Sunday, May 5, 2013

  Actual Average Record
Temperature  
Mean Temperature 58 °F -  
Max Temperature 78 °F 79 °F 93 °F (2003)
Min Temperature 37 °F 49 °F 37 °F (2013)
Degree Days  
Heating Degree Days 8    
Growing Degree Days 8 (Base 50)    
Moisture  
Dew Point 19 °F    
Average Humidity 21    
Maximum Humidity 38    
Minimum Humidity 12    
Precipitation  
Precipitation 0.00 in - - ()
Sea Level Pressure  
Sea Level Pressure 30.21 in    
Wind  
Wind Speed 7 mph ()    
Max Wind Speed 14 mph    
Max Gust Speed -    
Visibility 10.0 miles    
Events      
Averages and records for this station are not official NWS values.
T = Trace of Precipitation, MM = Missing Value Source: Averaged Metar Reports

Daily Weather History Graph

Daily Weather History Graph

Search for Another Location

Airport or City:

Trip Planner

Search our weather history database for the weather conditions in past years. The results will help you decide how hot, cold, wet, or windy it might be!

Date:

Astronomy

May. 05, 2013 Rise Set
Actual Time 7:15 AM CDT 8:19 PM CDT
Civil Twilight 6:51 AM CDT 8:43 PM CDT
Nautical Twilight 6:23 AM CDT 9:11 PM CDT
Astronomical Twilight 5:54 AM CDT 9:40 PM CDT
Moon 4:18 AM CDT (5/5) 4:46 PM CDT (5/5)
Length of Visible Light 13h 52m
Length of Day
13h 04m
Waning Crescent, 18% of the Moon is Illuminated
May 5
Waning Crescent
May 9
New
May 17
First Quarter
May 24
Full
May 31
Last Quarter

Hourly Weather History & Observations

Time (CDT) Temp. Windchill Dew Point Humidity Pressure Visibility Wind Dir Wind Speed Gust Speed Precip Events Conditions
12:41 AM 57.2 °F - 17.6 °F 21% 30.20 in 10.0 mi SW 10.4 mph - N/A   Clear
1:42 AM 53.6 °F - 17.6 °F 24% 30.20 in 10.0 mi South 5.8 mph - N/A   Clear
2:42 AM 42.8 °F 38.6 °F 12.2 °F 29% 30.19 in 10.0 mi SW 6.9 mph - N/A   Clear
3:43 AM 46.4 °F 41.1 °F 15.8 °F 29% 30.19 in 10.0 mi WSW 11.5 mph - N/A   Clear
4:45 AM 42.8 °F 38.0 °F 14.0 °F 31% 30.19 in 10.0 mi SW 8.1 mph - N/A   Clear
5:44 AM 37.4 °F - 14.0 °F 38% 30.20 in 10.0 mi Calm Calm - N/A   Clear
6:47 AM 46.4 °F 41.1 °F 17.6 °F 32% 30.21 in 10.0 mi South 11.5 mph - N/A   Scattered Clouds
7:45 AM 46.4 °F 41.5 °F 21.2 °F 37% 30.23 in 10.0 mi South 10.4 mph - N/A   Mostly Cloudy
8:43 AM 53.6 °F - 24.8 °F 33% 30.25 in 10.0 mi South 12.7 mph - N/A   Mostly Cloudy
9:44 AM 59.0 °F - 19.4 °F 22% 30.28 in 10.0 mi SSW 13.8 mph - N/A   Mostly Cloudy
10:54 AM 64.4 °F - 14.0 °F 14% 30.29 in 10.0 mi WSW 13.8 mph - N/A   Mostly Cloudy
11:58 AM 68.0 °F - 15.8 °F 13% 30.28 in 10.0 mi WSW 8.1 mph - N/A   Mostly Cloudy
12:45 PM 69.8 °F - 21.2 °F 16% 30.26 in 10.0 mi Calm Calm - N/A   Mostly Cloudy
1:42 PM 71.6 °F - 24.8 °F 17% 30.23 in 10.0 mi North 5.8 mph - N/A   Mostly Cloudy
2:40 PM 75.2 °F - 23.0 °F 14% 30.21 in 10.0 mi SSW 5.8 mph - N/A   Scattered Clouds
3:40 PM 77.0 °F - 23.0 °F 13% 30.18 in 10.0 mi West 6.9 mph - N/A   Scattered Clouds
4:45 PM 78.8 °F - 23.0 °F 13% 30.16 in 10.0 mi NE 3.5 mph - N/A   Scattered Clouds
5:45 PM 78.8 °F - 21.2 °F 12% 30.15 in 10.0 mi Calm Calm - N/A   Scattered Clouds
6:40 PM 78.8 °F - 21.2 °F 12% 30.15 in 10.0 mi NNW 5.8 mph - N/A   Scattered Clouds
7:45 PM 77.0 °F - 19.4 °F 12% 30.15 in 10.0 mi SSE 3.5 mph - N/A   Scattered Clouds
8:42 PM 71.6 °F - 17.6 °F 13% 30.16 in 10.0 mi SE 6.9 mph - N/A   Scattered Clouds
9:50 PM 64.4 °F - 17.6 °F 16% 30.19 in 10.0 mi South 4.6 mph - N/A   Partly Cloudy
10:49 PM 60.8 °F - 17.6 °F 19% 30.20 in 10.0 mi South 9.2 mph - N/A   Partly Cloudy
11:45 PM 55.4 °F - 12.2 °F 18% 30.23 in 10.0 mi West 6.9 mph - N/A   Clear